Location: Unspecified
(34.2230°N, 0.0000°E)
Time: 00:41:32
(UTC+00:00)

NOAA 12 DEB - Visible Passes

Search period start: 04 April 2026 00:00
Search period end: 14 April 2026 00:00
Orbit: 751 x 767 km, 98.4° (Epoch: 26 March)

Date Brightness Start Highest point End Pass type
(mag) Time Alt. Az. Time Alt. Az. Time Alt. Az.
4 Apr ? 04:07:27 10° ENE 04:10:14 15° E 04:12:59 10° SE visible
5 Apr ? 05:05:49 10° NNE 05:10:47 64° ESE 05:15:45 10° S visible
6 Apr ? 04:27:58 10° NE 04:32:03 25° E 04:36:08 10° SSE visible
8 Apr ? 04:49:03 10° NNE 04:53:47 42° E 04:58:31 10° S visible
9 Apr ? 04:11:48 10° NE 04:14:58 17° E 04:18:07 10° SE visible
11 Apr ? 04:32:28 10° NE 04:36:45 28° E 04:41:01 10° SSE visible
12 Apr ? 03:56:46 10° E 03:57:49 11° E 03:58:53 10° ESE visible
13 Apr ? 04:53:37 10° NNE 04:58:28 47° E 05:03:17 10° S visible
